一网星座-0145星 (ONEWEB-0145 )

导读 | 星芒AI

ONEWEB-0145 是 OneWeb 卫星星座计划中的一颗低轨通信卫星,旨在为全球提供高速互联网服务。该卫星采用标准化设计,部署在约 1200 公里的近地轨道,支持极地覆盖,服务于偏远和网络基础设施薄弱的地区。作为 OneWeb 扩展其全球宽带网络的一部分,该卫星通过与地面站和用户终端的连接,实现高速、低延迟的数据传输。ONEWEB-0145 的发射和运行有助于提升 OneWeb 在全球卫星互联网市场的竞争力,并推动数字包容性发展。

基本信息
目录编号:
47291
目录名称:
ONEWEB-0145
国际标识:
2020-100AK
轨道中心:
EARTH
卫星名称:
一网星座-0145星
卫星全名:
一网星座-0145星 (ONEWEB-0145 )
卫星状态:
在轨 (已飞行1823 天)
发射日期:
2020-12-18 UTC
国别 :
英国 (GB)
星等 :
--
轨道信息
数据来源 国际轨道数据
星历时间: 2025-12-14T22:45:19+0800
1天前
查看轨道信息
半长轴: 7591.709km
偏心率: 0.0001667
轨道倾角: 87.894°
近地点辐角 96.309°
升交点赤经 27.336°
平近点角 263.823°
近地点: 1212.308km
远地点: 1214.84km
周期: 109.716分钟
每日圈数: 13.124824
详细信息
平衡模式:
三轴稳定
覆盖范围:
全球
运营商:
一网卫星公司
运营商所在国:
英国
制造商(研发单位):
一网卫星公司
制造商所在国:
英国
使用方式:
暂无
卫星简介
OneWeb卫星网络由648颗重约125公斤的微型卫星组成,运行在1200公里的轨道上。 每颗卫星都能够提供至少每秒8千兆位的吞吐量,以使用其高吞吐量的Ku频段有效载荷为家庭和移动平台提供互联网接入。该卫星仍在工作。
2D轨道图
3D轨道图
轨道高度分析图
轨道倾角分析图
轨道综合分析图
查看轨道综合分析图